Белёв

Россия / Тульская область     53°48′36″N   36°07′48″E
темп.,
°C
ветер,
м/с
пор.,
м/с
влажн.,
%
обл.,
%
осадки,
мм/ч
давл.,
гПа
погр.,
м
8 мая, сб
сб800:00+8ююв51371100 0.0 1011348
03:00+8ююв81691100 1.9 1010752
06:00+8ююв81793100 2.9 1007949
09:00+9ююв71494100 4.9 1005824
12:00+9ююв71496100 3.9 1004729
15:00+10ююв71496100 9.1 1001671
18:00+9з5795100 2.9 1001433
21:00+7зсз6994100 3.5 1003579
9 мая, вс
вс900:00+5зсз81396100 3.1 1005941
03:00+3зсз91597100 8.6 1009897
06:00+4сз71389100 1.6 1012799
09:00+6сз81078100 1.6 10151125
12:00+5сз81078100 0.2 10181060
15:00+7сз6969100 0.2 10201495
18:00+9ссз58639 0.1 10211310
21:00+5зсз33775 0.1 102439
10 мая, пн
пн1000:00+3сз35784 0.0 102578
03:00+2ссз35792 0.0 102767
06:00+3с34780 0.0 102988
09:00+9с35582 0.0 1030434
12:00+13ссв45465 0.0 10301392
15:00+14ссв454494 0.0 10291683
18:00+13ссв36590 0.0 1028446
21:00+8св33740 0.0 103030
11 мая, вт
вт1100:00+6св34750 0.0 103052
03:00+4ссв36780 0.0 103095
06:00+5св311800 0.0 1030246
09:00+11всв712590 0.0 1029717
12:00+15всв79504 0.0 10281009
15:00+16всв78575 0.0 10261077
18:00+15в697178 0.0 1027925
21:00+11св36905 0.0 102688
12 мая, ср
ср1200:00+9св3119263 0.0 1025234
03:00+9всв5128935 0.0 1023313
06:00+10в41094100 0.0 1023367
09:00+10юв2496100 0.2 1024217
12:00+11всв128479 2.7 1023353
15:00+14в4575100 2.8 10221046
18:00+14в357462 0.1 1021618
21:00+11всв359599 0.2 1020137